Time,TemperatureF,DewpointF,PressureIn,WindDirection,WindDirectionDegrees,WindSpeedMPH,WindSpeedGustMPH,Humidity,HourlyPrecipIn,Conditions,Clouds,dailyrainin,SoftwareType,DateUTC
2013-12-12 00:01:00,-0.9,-30.7,30.47,North,0,0.0,0.0,22,0.00,BKN,OVC,0.00,WeatherDisplay:10.37,2013-12-12 06:01:00,
2013-12-12 00:06:00,-1.1,-30.9,30.47,North,0,0.0,0.0,22,0.00,BKN,OVC,0.00,WeatherDisplay:10.37,2013-12-12 06:06:00,
2013-12-12 00:11:00,-1.1,-30.9,30.47,North,0,0.0,0.0,22,0.00,BKN,OVC,0.00,WeatherDisplay:10.37,2013-12-12 06:11:00,
2013-12-12 00:16:00,-1.3,-31.0,30.47,North,0,0.0,0.0,22,0.00,BKN,OVC,0.00,WeatherDisplay:10.37,2013-12-12 06:16:00,
2013-12-12 00:21:00,-1.3,-31.0,30.47,North,0,0.0,0.0,22,0.00,BKN,OVC,0.00,WeatherDisplay:10.37,2013-12-12 06:21:00,
2013-12-12 00:26:00,-1.3,-31.0,30.47,North,0,0.0,0.0,22,0.00,BKN,OVC,0.00,WeatherDisplay:10.37,2013-12-12 06:26:00,
2013-12-12 00:31:00,-1.7,-31.3,30.47,North,0,0.0,0.0,22,0.00,BKN,OVC,0.00,WeatherDisplay:10.37,2013-12-12 06:31:00,
2013-12-12 00:36:00,-1.8,-31.5,30.47,North,0,0.0,0.0,22,0.00,BKN,OVC,0.00,WeatherDisplay:10.37,2013-12-12 06:36:00,
2013-12-12 00:41:00,-1.8,-31.5,30.47,North,0,0.0,0.0,22,0.00,BKN,OVC,0.00,WeatherDisplay:10.37,2013-12-12 06:41:00,
2013-12-12 00:46:00,-1.8,-31.5,30.47,North,0,0.0,0.0,22,0.00,BKN,OVC,0.00,WeatherDisplay:10.37,2013-12-12 06:46:00,
2013-12-12 00:51:00,-1.8,-31.5,30.47,North,0,0.0,0.0,22,0.00,BKN,OVC,0.00,WeatherDisplay:10.37,2013-12-12 06:51:00,
2013-12-12 00:56:00,-2.0,-31.7,30.47,North,0,0.0,0.0,22,0.00,BKN,OVC,0.00,WeatherDisplay:10.37,2013-12-12 06:56:00,
2013-12-12 01:01:00,-2.2,-31.8,30.47,North,0,0.0,0.0,22,0.00,CLR,OVC,0.00,WeatherDisplay:10.37,2013-12-12 07:01:00,
2013-12-12 01:06:00,-2.2,-31.8,30.47,North,0,0.0,0.0,22,0.00,CLR,OVC,0.00,WeatherDisplay:10.37,2013-12-12 07:06:00,
2013-12-12 01:11:00,-2.2,-31.8,30.47,North,0,0.0,0.0,22,0.00,CLR,OVC,0.00,WeatherDisplay:10.37,2013-12-12 07:11:00,
2013-12-12 01:16:00,-2.2,-31.8,30.44,North,0,0.0,0.0,22,0.00,CLR,OVC,0.00,WeatherDisplay:10.37,2013-12-12 07:16:00,
2013-12-12 01:21:00,-2.2,-31.8,30.44,North,0,0.0,0.0,22,0.00,CLR,OVC,0.00,WeatherDisplay:10.37,2013-12-12 07:21:00,
2013-12-12 01:26:00,-2.2,-31.8,30.44,North,0,0.0,0.0,22,0.00,CLR,OVC,0.00,WeatherDisplay:10.37,2013-12-12 07:26:00,
2013-12-12 01:31:00,-2.2,-31.8,30.44,North,0,0.0,0.0,22,0.00,CLR,OVC,0.00,WeatherDisplay:10.37,2013-12-12 07:31:00,
2013-12-12 01:36:00,-2.2,-31.8,30.44,North,0,0.0,0.0,22,0.00,CLR,OVC,0.00,WeatherDisplay:10.37,2013-12-12 07:36:00,
2013-12-12 01:41:00,-2.2,-31.8,30.44,North,0,0.0,0.0,22,0.00,CLR,OVC,0.00,WeatherDisplay:10.37,2013-12-12 07:41:00,
2013-12-12 01:46:00,-2.2,-31.8,30.44,North,0,0.0,0.0,22,0.00,CLR,OVC,0.00,WeatherDisplay:10.37,2013-12-12 07:46:00,
2013-12-12 01:51:00,-2.2,-31.8,30.44,North,0,0.0,0.0,22,0.00,CLR,OVC,0.00,WeatherDisplay:10.37,2013-12-12 07:51:00,
2013-12-12 01:56:00,-2.2,-31.8,30.44,North,0,0.0,0.0,22,0.00,CLR,OVC,0.00,WeatherDisplay:10.37,2013-12-12 07:56:00,
2013-12-12 02:01:00,-2.4,-32.0,30.44,North,0,0.0,0.0,22,0.00,CLR,OVC,0.00,WeatherDisplay:10.37,2013-12-12 08:01:00,
2013-12-12 02:06:00,-2.6,-32.1,30.44,North,0,0.0,0.0,22,0.00,CLR,OVC,0.00,WeatherDisplay:10.37,2013-12-12 08:06:00,
2013-12-12 02:11:00,-2.6,-32.1,30.44,North,0,0.0,0.0,22,0.00,CLR,OVC,0.00,WeatherDisplay:10.37,2013-12-12 08:11:00,
2013-12-12 02:16:00,-2.6,-32.1,30.44,North,0,0.0,0.0,22,0.00,CLR,OVC,0.00,WeatherDisplay:10.37,2013-12-12 08:16:00,
2013-12-12 02:21:00,-2.6,-32.1,30.44,North,0,0.0,0.0,22,0.00,CLR,OVC,0.00,WeatherDisplay:10.37,2013-12-12 08:21:00,
2013-12-12 02:26:00,-2.6,-32.1,30.44,North,0,0.0,0.0,22,0.00,CLR,OVC,0.00,WeatherDisplay:10.37,2013-12-12 08:26:00,
2013-12-12 02:31:00,-2.4,-32.0,30.44,North,0,0.0,0.0,22,0.00,CLR,OVC,0.00,WeatherDisplay:10.37,2013-12-12 08:31:00,
2013-12-12 02:36:00,-2.4,-32.0,30.44,North,0,0.0,0.0,22,0.00,CLR,OVC,0.00,WeatherDisplay:10.37,2013-12-12 08:36:00,
2013-12-12 02:41:00,-2.2,-31.8,30.44,North,0,0.0,0.0,22,0.00,CLR,OVC,0.00,WeatherDisplay:10.37,2013-12-12 08:41:00,
2013-12-12 02:46:00,-2.2,-31.8,30.44,North,0,0.0,0.0,22,0.00,CLR,OVC,0.00,WeatherDisplay:10.37,2013-12-12 08:46:00,
2013-12-12 02:51:00,-2.2,-31.8,30.44,North,0,0.0,0.0,22,0.00,CLR,OVC,0.00,WeatherDisplay:10.37,2013-12-12 08:51:00,
2013-12-12 02:56:00,-1.8,-31.5,30.44,North,0,0.0,0.0,22,0.00,CLR,OVC,0.00,WeatherDisplay:10.37,2013-12-12 08:56:00,
2013-12-12 03:01:00,-1.8,-31.5,30.41,North,0,0.0,0.0,22,0.00,CLR,OVC,0.00,WeatherDisplay:10.37,2013-12-12 09:01:00,
2013-12-12 03:06:00,-1.8,-31.5,30.41,North,0,0.0,0.0,22,0.00,CLR,OVC,0.00,WeatherDisplay:10.37,2013-12-12 09:06:00,
2013-12-12 03:11:00,-1.8,-31.5,30.41,North,0,0.0,0.0,22,0.00,CLR,OVC,0.00,WeatherDisplay:10.37,2013-12-12 09:11:00,
2013-12-12 03:16:00,-1.7,-31.3,30.41,North,0,0.0,0.0,22,0.00,CLR,OVC,0.00,WeatherDisplay:10.37,2013-12-12 09:16:00,
2013-12-12 03:21:00,-1.7,-31.3,30.41,North,0,0.0,0.0,22,0.00,CLR,OVC,0.00,WeatherDisplay:10.37,2013-12-12 09:21:00,
2013-12-12 03:26:00,-1.7,-31.3,30.41,North,0,0.0,0.0,22,0.00,CLR,OVC,0.00,WeatherDisplay:10.37,2013-12-12 09:26:00,
2013-12-12 07:40:00,6.4,-24.4,30.30,North,0,0.0,0.0,22,0.00,CLR,OVC,0.00,WeatherDisplay:10.37,2013-12-12 13:40:00,
2013-12-12 07:45:00,6.6,-24.3,30.30,North,0,0.0,0.0,22,0.00,CLR,OVC,0.00,WeatherDisplay:10.37,2013-12-12 13:45:00,
2013-12-12 07:50:00,6.8,-24.1,30.30,North,0,0.0,0.0,22,0.00,CLR,OVC,0.00,WeatherDisplay:10.37,2013-12-12 13:50:00,
2013-12-12 07:55:00,7.0,-23.9,30.30,North,0,0.0,0.0,22,0.00,CLR,OVC,0.00,WeatherDisplay:10.37,2013-12-12 13:55:00,
2013-12-12 08:00:00,7.2,-23.8,30.32,North,0,0.0,0.0,22,0.00,CLR,OVC,0.00,WeatherDisplay:10.37,2013-12-12 14:00:00,
2013-12-12 08:05:00,7.3,-23.6,30.32,North,0,0.0,0.0,22,0.00,CLR,OVC,0.00,WeatherDisplay:10.37,2013-12-12 14:05:00,
2013-12-12 08:10:00,7.7,-23.3,30.32,North,0,0.0,0.0,22,0.00,CLR,OVC,0.00,WeatherDisplay:10.37,2013-12-12 14:10:00,
2013-12-12 08:15:00,8.2,-22.9,30.32,North,0,0.0,0.0,22,0.00,CLR,OVC,0.00,WeatherDisplay:10.37,2013-12-12 14:15:00,
2013-12-12 08:20:00,8.6,-22.6,30.32,North,0,0.0,0.0,22,0.00,CLR,OVC,0.00,WeatherDisplay:10.37,2013-12-12 14:20:00,
2013-12-12 08:25:00,9.1,-22.1,30.32,North,0,0.0,0.0,22,0.00,CLR,OVC,0.00,WeatherDisplay:10.37,2013-12-12 14:25:00,
2013-12-12 08:30:00,9.3,-21.9,30.30,North,0,0.0,0.0,22,0.00,CLR,OVC,0.00,WeatherDisplay:10.37,2013-12-12 14:30:00,
2013-12-12 08:35:00,9.5,-21.8,30.30,North,0,0.0,0.0,22,0.00,CLR,OVC,0.00,WeatherDisplay:10.37,2013-12-12 14:35:00,
2013-12-12 08:40:00,9.7,-21.6,30.30,North,0,0.0,0.0,22,0.00,CLR,OVC,0.00,WeatherDisplay:10.37,2013-12-12 14:40:00,
2013-12-12 08:45:00,9.9,-21.5,30.32,North,0,0.0,0.0,22,0.00,CLR,OVC,0.00,WeatherDisplay:10.37,2013-12-12 14:45:00,
2013-12-12 08:50:00,10.0,-21.3,30.32,North,0,0.0,0.0,22,0.00,CLR,OVC,0.00,WeatherDisplay:10.37,2013-12-12 14:50:00,
2013-12-12 08:55:00,10.2,-21.2,30.32,North,0,0.0,0.0,22,0.00,CLR,OVC,0.00,WeatherDisplay:10.37,2013-12-12 14:55:00,
2013-12-12 09:00:00,10.4,-21.0,30.32,North,0,0.0,0.0,22,0.00,CLR,OVC,0.00,WeatherDisplay:10.37,2013-12-12 15:00:00,
2013-12-12 09:05:00,10.8,-20.7,30.32,North,0,0.0,0.0,22,0.00,CLR,OVC,0.00,WeatherDisplay:10.37,2013-12-12 15:05:00,
2013-12-12 09:10:00,11.1,-20.4,30.32,North,0,0.0,0.0,22,0.00,CLR,OVC,0.00,WeatherDisplay:10.37,2013-12-12 15:10:00,
2013-12-12 09:15:00,11.3,-20.2,30.32,North,0,0.0,0.0,22,0.00,CLR,OVC,0.00,WeatherDisplay:10.37,2013-12-12 15:15:00,
2013-12-12 09:20:00,11.5,-20.1,30.32,North,0,0.0,0.0,22,0.00,CLR,OVC,0.00,WeatherDisplay:10.37,2013-12-12 15:20:00,
2013-12-12 09:25:00,11.7,-19.9,30.32,North,0,0.0,0.0,22,0.00,CLR,OVC,0.00,WeatherDisplay:10.37,2013-12-12 15:25:00,
2013-12-12 09:30:00,12.0,-19.6,30.30,North,0,0.0,0.0,22,0.00,CLR,OVC,0.00,WeatherDisplay:10.37,2013-12-12 15:30:00,
2013-12-12 09:35:00,12.2,-19.5,30.30,North,0,0.0,0.0,22,0.00,CLR,OVC,0.00,WeatherDisplay:10.37,2013-12-12 15:35:00,
2013-12-12 09:40:00,12.6,-19.2,30.30,North,0,0.0,0.0,22,0.00,CLR,OVC,0.00,WeatherDisplay:10.37,2013-12-12 15:40:00,
2013-12-12 09:45:00,12.7,-19.0,30.32,North,0,0.0,0.0,22,0.00,CLR,OVC,0.00,WeatherDisplay:10.37,2013-12-12 15:45:00,
2013-12-12 09:50:00,13.3,-18.6,30.32,North,0,0.0,0.0,22,0.00,CLR,OVC,0.00,WeatherDisplay:10.37,2013-12-12 15:50:00,
2013-12-12 09:55:00,13.6,-18.3,30.32,North,0,0.0,0.0,22,0.00,CLR,OVC,0.00,WeatherDisplay:10.37,2013-12-12 15:55:00,
2013-12-12 10:00:00,14.0,-20.8,30.32,North,0,0.0,0.0,19,0.00,CLR,OVC,0.00,WeatherDisplay:10.37,2013-12-12 16:00:00,
2013-12-12 10:05:00,14.2,-20.6,30.32,North,0,0.0,0.0,19,0.00,CLR,OVC,0.00,WeatherDisplay:10.37,2013-12-12 16:05:00,
2013-12-12 10:10:00,14.5,-20.3,30.32,North,0,0.0,0.0,19,0.00,CLR,OVC,0.00,WeatherDisplay:10.37,2013-12-12 16:10:00,
2013-12-12 10:15:00,14.9,-20.0,30.32,North,0,0.0,0.0,19,0.00,CLR,OVC,0.00,WeatherDisplay:10.37,2013-12-12 16:15:00,
2013-12-12 10:20:00,15.3,-19.7,30.32,North,0,0.0,0.0,19,0.00,CLR,OVC,0.00,WeatherDisplay:10.37,2013-12-12 16:20:00,
2013-12-12 10:25:00,15.8,-19.3,30.32,North,0,0.0,0.0,19,0.00,CLR,OVC,0.00,WeatherDisplay:10.37,2013-12-12 16:25:00,
2013-12-12 10:30:00,16.2,-20.0,30.30,North,0,0.0,0.0,18,0.00,CLR,OVC,0.00,WeatherDisplay:10.37,2013-12-12 16:30:00,
2013-12-12 10:35:00,16.5,-19.7,30.30,North,0,0.0,0.0,18,0.00,CLR,OVC,0.00,WeatherDisplay:10.37,2013-12-12 16:35:00,
2013-12-12 10:40:00,16.7,-19.6,30.30,North,0,0.0,0.0,18,0.00,CLR,OVC,0.00,WeatherDisplay:10.37,2013-12-12 16:40:00,
2013-12-12 10:45:00,17.1,-19.3,30.30,North,0,0.0,0.0,18,0.00,CLR,OVC,0.00,WeatherDisplay:10.37,2013-12-12 16:45:00,
2013-12-12 10:50:00,17.4,-19.0,30.30,North,0,0.0,0.0,18,0.00,CLR,OVC,0.00,WeatherDisplay:10.37,2013-12-12 16:50:00,
2013-12-12 10:55:00,17.6,-18.8,30.30,North,0,0.0,0.0,18,0.00,CLR,OVC,0.00,WeatherDisplay:10.37,2013-12-12 16:55:00,
2013-12-12 11:00:00,17.8,-18.7,30.30,North,0,0.0,0.0,18,0.00,CLR,OVC,0.00,WeatherDisplay:10.37,2013-12-12 17:00:00,
2013-12-12 11:05:00,18.1,-18.4,30.30,North,0,0.0,0.0,18,0.00,CLR,OVC,0.00,WeatherDisplay:10.37,2013-12-12 17:05:00,
2013-12-12 11:10:00,18.5,-18.1,30.30,North,0,0.0,0.0,18,0.00,CLR,OVC,0.00,WeatherDisplay:10.37,2013-12-12 17:10:00,
2013-12-12 11:15:00,18.5,-18.1,30.30,North,0,0.0,0.0,18,0.00,CLR,OVC,0.00,WeatherDisplay:10.37,2013-12-12 17:15:00,
2013-12-12 11:20:00,18.9,-17.8,30.30,North,0,0.0,0.0,18,0.00,CLR,OVC,0.00,WeatherDisplay:10.37,2013-12-12 17:20:00,
2013-12-12 11:25:00,19.0,-17.6,30.30,North,0,0.0,0.0,18,0.00,CLR,OVC,0.00,WeatherDisplay:10.37,2013-12-12 17:25:00,
2013-12-12 11:30:00,19.4,-17.3,30.30,North,0,0.0,0.0,18,0.00,CLR,OVC,0.00,WeatherDisplay:10.37,2013-12-12 17:30:00,
2013-12-12 11:35:00,19.4,-17.3,30.26,North,0,0.0,0.0,18,0.00,CLR,OVC,0.00,WeatherDisplay:10.37,2013-12-12 17:35:00,
2013-12-12 11:40:00,19.4,-17.3,30.26,North,0,0.0,0.0,18,0.00,CLR,OVC,0.00,WeatherDisplay:10.37,2013-12-12 17:40:00,
2013-12-12 11:45:00,19.6,-18.3,30.26,North,0,0.0,0.0,17,0.00,CLR,OVC,0.00,WeatherDisplay:10.37,2013-12-12 17:45:00,
2013-12-12 11:50:00,19.6,-18.3,30.26,North,0,0.0,0.0,17,0.00,CLR,OVC,0.00,WeatherDisplay:10.37,2013-12-12 17:50:00,
2013-12-12 11:55:00,19.9,-18.0,30.26,North,0,0.0,0.0,17,0.00,CLR,OVC,0.00,WeatherDisplay:10.37,2013-12-12 17:55:00,
2013-12-12 12:00:00,20.1,-17.8,30.30,North,0,0.0,0.0,17,0.00,CLR,OVC,0.00,WeatherDisplay:10.37,2013-12-12 18:00:00,
2013-12-12 12:05:00,20.1,-17.8,30.30,North,0,0.0,0.0,17,0.00,CLR,OVC,0.00,WeatherDisplay:10.37,2013-12-12 18:05:00,
2013-12-12 12:10:00,20.3,-17.7,30.30,North,0,0.0,0.0,17,0.00,CLR,OVC,0.00,WeatherDisplay:10.37,2013-12-12 18:10:00,
2013-12-12 12:15:00,20.5,-17.5,30.30,North,0,0.0,0.0,17,0.00,CLR,OVC,0.00,WeatherDisplay:10.37,2013-12-12 18:15:00,
2013-12-12 12:20:00,20.7,-17.4,30.30,North,0,0.0,0.0,17,0.00,CLR,OVC,0.00,WeatherDisplay:10.37,2013-12-12 18:20:00,
2013-12-12 12:26:00,20.8,-17.2,30.30,North,0,0.0,0.0,17,0.00,CLR,OVC,0.00,WeatherDisplay:10.37,2013-12-12 18:26:00,
2013-12-12 12:31:00,21.0,-17.1,30.30,North,0,0.0,0.0,17,0.00,CLR,OVC,0.00,WeatherDisplay:10.37,2013-12-12 18:31:00,
2013-12-12 12:36:00,21.0,-17.1,30.30,North,0,0.0,0.0,17,0.00,CLR,OVC,0.00,WeatherDisplay:10.37,2013-12-12 18:36:00,
2013-12-12 12:41:00,21.0,-17.1,30.30,North,0,0.0,0.0,17,0.00,CLR,OVC,0.00,WeatherDisplay:10.37,2013-12-12 18:41:00,
2013-12-12 12:46:00,21.2,-16.9,30.26,North,0,0.0,0.0,17,0.00,CLR,OVC,0.00,WeatherDisplay:10.37,2013-12-12 18:46:00,
2013-12-12 12:51:00,21.2,-16.9,30.26,North,0,0.0,0.0,17,0.00,CLR,OVC,0.00,WeatherDisplay:10.37,2013-12-12 18:51:00,
2013-12-12 12:56:00,21.2,-16.9,30.26,North,0,0.0,0.0,17,0.00,CLR,OVC,0.00,WeatherDisplay:10.37,2013-12-12 18:56:00,
2013-12-12 13:01:00,21.2,-16.9,30.26,North,0,0.0,0.0,17,0.00,CLR,OVC,0.00,WeatherDisplay:10.37,2013-12-12 19:01:00,
2013-12-12 13:06:00,21.2,-16.9,30.26,North,0,0.0,0.0,17,0.00,CLR,OVC,0.00,WeatherDisplay:10.37,2013-12-12 19:06:00,
2013-12-12 13:11:00,21.4,-16.8,30.26,North,0,0.0,0.0,17,0.00,CLR,OVC,0.00,WeatherDisplay:10.37,2013-12-12 19:11:00,
2013-12-12 13:16:00,21.4,-16.8,30.26,North,0,0.0,0.0,17,0.00,CLR,OVC,0.00,WeatherDisplay:10.37,2013-12-12 19:16:00,
2013-12-12 13:21:00,21.7,-16.5,30.26,North,0,0.0,0.0,17,0.00,CLR,OVC,0.00,WeatherDisplay:10.37,2013-12-12 19:21:00,
2013-12-12 13:26:00,21.7,-16.5,30.26,North,0,0.0,0.0,17,0.00,CLR,OVC,0.00,WeatherDisplay:10.37,2013-12-12 19:26:00,
2013-12-12 13:31:00,21.9,-16.3,30.26,North,0,0.0,0.0,17,0.00,CLR,OVC,0.00,WeatherDisplay:10.37,2013-12-12 19:31:00,
2013-12-12 13:36:00,21.9,-16.3,30.26,North,0,0.0,0.0,17,0.00,CLR,OVC,0.00,WeatherDisplay:10.37,2013-12-12 19:36:00,
2013-12-12 13:41:00,21.9,-16.3,30.26,North,0,0.0,0.0,17,0.00,CLR,OVC,0.00,WeatherDisplay:10.37,2013-12-12 19:41:00,
2013-12-12 13:46:00,21.9,-16.3,30.24,North,0,0.0,0.0,17,0.00,CLR,OVC,0.00,WeatherDisplay:10.37,2013-12-12 19:46:00,
2013-12-12 13:51:00,21.9,-16.3,30.24,North,0,0.0,0.0,17,0.00,CLR,OVC,0.00,WeatherDisplay:10.37,2013-12-12 19:51:00,
2013-12-12 13:56:00,21.9,-16.3,30.24,North,0,0.0,0.0,17,0.00,CLR,OVC,0.00,WeatherDisplay:10.37,2013-12-12 19:56:00,
2013-12-12 14:01:00,21.9,-16.3,30.24,North,0,0.0,0.0,17,0.00,CLR,OVC,0.00,WeatherDisplay:10.37,2013-12-12 20:01:00,
2013-12-12 14:06:00,21.9,-16.3,30.24,North,0,0.0,0.0,17,0.00,CLR,OVC,0.00,WeatherDisplay:10.37,2013-12-12 20:06:00,
2013-12-12 14:11:00,21.9,-16.3,30.24,North,0,0.0,0.0,17,0.00,CLR,OVC,0.00,WeatherDisplay:10.37,2013-12-12 20:11:00,
2013-12-12 14:16:00,21.9,-16.3,30.24,North,0,0.0,0.0,17,0.00,CLR,OVC,0.00,WeatherDisplay:10.37,2013-12-12 20:16:00,
2013-12-12 14:21:00,21.9,-16.3,30.24,North,0,0.0,0.0,17,0.00,CLR,OVC,0.00,WeatherDisplay:10.37,2013-12-12 20:21:00,
2013-12-12 14:26:00,22.1,-16.2,30.24,North,0,0.0,0.0,17,0.00,CLR,OVC,0.00,WeatherDisplay:10.37,2013-12-12 20:26:00,
2013-12-12 14:31:00,22.3,-16.0,30.24,North,0,0.0,0.0,17,0.00,CLR,OVC,0.00,WeatherDisplay:10.37,2013-12-12 20:31:00,
2013-12-12 14:36:00,22.5,-15.9,30.24,North,0,0.0,0.0,17,0.00,CLR,OVC,0.00,WeatherDisplay:10.37,2013-12-12 20:36:00,
2013-12-12 14:41:00,22.5,-15.9,30.24,North,0,0.0,0.0,17,0.00,CLR,OVC,0.00,WeatherDisplay:10.37,2013-12-12 20:41:00,
2013-12-12 14:46:00,22.5,-15.9,30.24,North,0,0.0,0.0,17,0.00,CLR,OVC,0.00,WeatherDisplay:10.37,2013-12-12 20:46:00,
2013-12-12 14:51:00,22.6,-15.7,30.24,North,0,0.0,0.0,17,0.00,CLR,OVC,0.00,WeatherDisplay:10.37,2013-12-12 20:51:00,
2013-12-12 14:56:00,22.6,-15.7,30.24,North,0,0.0,0.0,17,0.00,CLR,OVC,0.00,WeatherDisplay:10.37,2013-12-12 20:56:00,
2013-12-12 15:01:00,22.6,-15.7,30.24,North,0,0.0,0.0,17,0.00,CLR,OVC,0.00,WeatherDisplay:10.37,2013-12-12 21:01:00,
2013-12-12 15:06:00,22.6,-15.7,30.24,North,0,0.0,0.0,17,0.00,CLR,OVC,0.00,WeatherDisplay:10.37,2013-12-12 21:06:00,
2013-12-12 15:11:00,22.6,-15.7,30.24,North,0,0.0,0.0,17,0.00,CLR,OVC,0.00,WeatherDisplay:10.37,2013-12-12 21:11:00,
2013-12-12 15:16:00,22.5,-15.9,30.21,North,0,0.0,0.0,17,0.00,CLR,OVC,0.00,WeatherDisplay:10.37,2013-12-12 21:16:00,
2013-12-12 15:21:00,22.6,-15.7,30.21,North,0,0.0,0.0,17,0.00,CLR,OVC,0.00,WeatherDisplay:10.37,2013-12-12 21:21:00,
2013-12-12 15:25:00,22.6,-15.7,30.21,North,0,0.0,0.0,17,0.00,CLR,OVC,0.00,WeatherDisplay:10.37,2013-12-12 21:25:00,
2013-12-12 15:30:00,22.6,-15.7,30.21,North,0,0.0,0.0,17,0.00,CLR,OVC,0.00,WeatherDisplay:10.37,2013-12-12 21:30:00,
2013-12-12 15:35:00,22.5,-15.9,30.21,North,0,0.0,0.0,17,0.00,CLR,OVC,0.00,WeatherDisplay:10.37,2013-12-12 21:35:00,
2013-12-12 15:40:00,22.5,-15.9,30.21,North,0,0.0,0.0,17,0.00,CLR,OVC,0.00,WeatherDisplay:10.37,2013-12-12 21:40:00,
2013-12-12 15:45:00,22.5,-15.9,30.21,North,0,0.0,0.0,17,0.00,CLR,OVC,0.00,WeatherDisplay:10.37,2013-12-12 21:45:00,
2013-12-12 15:50:00,22.6,-15.7,30.21,North,0,0.0,0.0,17,0.00,CLR,OVC,0.00,WeatherDisplay:10.37,2013-12-12 21:50:00,
2013-12-12 15:55:00,22.8,-15.6,30.21,North,0,0.0,0.0,17,0.00,CLR,OVC,0.00,WeatherDisplay:10.37,2013-12-12 21:55:00,
2013-12-12 16:00:00,22.8,-15.6,30.21,North,0,0.0,0.0,17,0.00,CLR,OVC,0.00,WeatherDisplay:10.37,2013-12-12 22:00:00,
2013-12-12 16:05:00,23.0,-15.4,30.21,North,0,0.0,0.0,17,0.00,FEW,OVC,0.00,WeatherDisplay:10.37,2013-12-12 22:05:00,
2013-12-12 16:10:00,23.0,-15.4,30.21,North,0,0.0,0.0,17,0.00,FEW,OVC,0.00,WeatherDisplay:10.37,2013-12-12 22:10:00,
2013-12-12 16:15:00,23.0,-15.4,30.21,North,0,0.0,0.0,17,0.00,FEW,OVC,0.00,WeatherDisplay:10.37,2013-12-12 22:15:00,
2013-12-12 16:20:00,23.0,-15.4,30.21,North,0,0.0,0.0,17,0.00,FEW,OVC,0.00,WeatherDisplay:10.37,2013-12-12 22:20:00,
2013-12-12 16:25:00,23.0,-15.4,30.21,North,0,0.0,0.0,17,0.00,FEW,OVC,0.00,WeatherDisplay:10.37,2013-12-12 22:25:00,
2013-12-12 16:30:00,22.8,-15.6,30.21,North,0,0.0,0.0,17,0.00,FEW,OVC,0.00,WeatherDisplay:10.37,2013-12-12 22:30:00,
2013-12-12 16:35:00,22.5,-15.9,30.21,North,0,0.0,0.0,17,0.00,FEW,OVC,0.00,WeatherDisplay:10.37,2013-12-12 22:35:00,
2013-12-12 16:40:00,22.3,-16.0,30.21,North,0,0.0,0.0,17,0.00,FEW,OVC,0.00,WeatherDisplay:10.37,2013-12-12 22:40:00,
2013-12-12 16:45:00,22.3,-16.0,30.21,North,0,0.0,0.0,17,0.00,FEW,OVC,0.00,WeatherDisplay:10.37,2013-12-12 22:45:00,
2013-12-12 16:50:00,21.9,-16.3,30.21,North,0,0.0,0.0,17,0.00,FEW,OVC,0.00,WeatherDisplay:10.37,2013-12-12 22:50:00,
2013-12-12 16:55:00,21.7,-16.5,30.21,North,0,0.0,0.0,17,0.00,FEW,OVC,0.00,WeatherDisplay:10.37,2013-12-12 22:55:00,
2013-12-12 17:00:00,21.6,-16.6,30.21,North,0,0.0,0.0,17,0.00,FEW,OVC,0.00,WeatherDisplay:10.37,2013-12-12 23:00:00,
2013-12-12 17:05:00,21.2,-16.9,30.21,North,0,0.0,0.0,17,0.00,CLR,OVC,0.00,WeatherDisplay:10.37,2013-12-12 23:05:00,
2013-12-12 17:10:00,21.0,-17.1,30.21,North,0,0.0,0.0,17,0.00,CLR,OVC,0.00,WeatherDisplay:10.37,2013-12-12 23:10:00,
2013-12-12 17:15:00,20.7,-17.4,30.21,North,0,0.0,0.0,17,0.00,CLR,OVC,0.00,WeatherDisplay:10.37,2013-12-12 23:15:00,
2013-12-12 17:20:00,20.5,-17.5,30.21,North,0,0.0,0.0,17,0.00,CLR,OVC,0.00,WeatherDisplay:10.37,2013-12-12 23:20:00,
2013-12-12 17:25:00,20.3,-17.7,30.21,North,0,0.0,0.0,17,0.00,CLR,OVC,0.00,WeatherDisplay:10.37,2013-12-12 23:25:00,
2013-12-12 17:30:00,20.1,-17.8,30.21,North,0,0.0,0.0,17,0.00,CLR,OVC,0.00,WeatherDisplay:10.37,2013-12-12 23:30:00,
2013-12-12 17:35:00,20.1,-17.8,30.21,North,0,0.0,0.0,17,0.00,CLR,OVC,0.00,WeatherDisplay:10.37,2013-12-12 23:35:00,
2013-12-12 17:40:00,19.9,-18.0,30.21,North,0,0.0,0.0,17,0.00,CLR,OVC,0.00,WeatherDisplay:10.37,2013-12-12 23:40:00,
2013-12-12 17:45:00,19.8,-18.1,30.21,North,0,0.0,0.0,17,0.00,CLR,OVC,0.00,WeatherDisplay:10.37,2013-12-12 23:45:00,
2013-12-12 17:50:00,19.6,-18.3,30.18,North,0,0.0,0.0,17,0.00,CLR,OVC,0.00,WeatherDisplay:10.37,2013-12-12 23:50:00,
2013-12-12 17:55:00,19.6,-18.3,30.18,North,0,0.0,0.0,17,0.00,CLR,OVC,0.00,WeatherDisplay:10.37,2013-12-12 23:55:00,
2013-12-12 18:00:00,19.4,-17.3,30.18,North,0,0.0,0.0,18,0.00,CLR,OVC,0.00,WeatherDisplay:10.37,2013-12-13 00:00:00,
2013-12-12 18:05:00,19.2,-17.5,30.18,North,0,0.0,0.0,18,0.00,CLR,OVC,0.00,WeatherDisplay:10.37,2013-12-13 00:05:00,
2013-12-12 18:10:00,19.0,-17.6,30.18,North,0,0.0,0.0,18,0.00,CLR,OVC,0.00,WeatherDisplay:10.37,2013-12-13 00:10:00,
2013-12-12 18:15:00,18.9,-17.8,30.18,North,0,0.0,0.0,18,0.00,CLR,OVC,0.00,WeatherDisplay:10.37,2013-12-13 00:15:00,
2013-12-12 18:20:00,18.7,-17.9,30.18,North,0,0.0,0.0,18,0.00,CLR,OVC,0.00,WeatherDisplay:10.37,2013-12-13 00:20:00,
2013-12-12 18:25:00,18.5,-18.1,30.18,North,0,0.0,0.0,18,0.00,CLR,OVC,0.00,WeatherDisplay:10.37,2013-12-13 00:25:00,
2013-12-12 18:30:00,18.5,-18.1,30.18,North,0,0.0,0.0,18,0.00,CLR,OVC,0.00,WeatherDisplay:10.37,2013-12-13 00:30:00,
2013-12-12 18:35:00,18.5,-18.1,30.18,North,0,0.0,0.0,18,0.00,CLR,OVC,0.00,WeatherDisplay:10.37,2013-12-13 00:35:00,
2013-12-12 18:40:00,18.5,-18.1,30.18,North,0,0.0,0.0,18,0.00,CLR,OVC,0.00,WeatherDisplay:10.37,2013-12-13 00:40:00,
2013-12-12 18:45:00,18.3,-18.2,30.15,North,0,0.0,0.0,18,0.00,CLR,OVC,0.00,WeatherDisplay:10.37,2013-12-13 00:45:00,
2013-12-12 18:50:00,18.1,-18.4,30.15,North,0,0.0,0.0,18,0.00,CLR,OVC,0.00,WeatherDisplay:10.37,2013-12-13 00:50:00,
2013-12-12 18:55:00,18.0,-18.5,30.15,North,0,0.0,0.0,18,0.00,CLR,OVC,0.00,WeatherDisplay:10.37,2013-12-13 00:55:00,
2013-12-12 19:00:00,17.8,-18.7,30.18,North,0,0.0,0.0,18,0.00,CLR,OVC,0.00,WeatherDisplay:10.37,2013-12-13 01:00:00,
2013-12-12 19:05:00,17.6,-15.8,30.18,North,0,0.0,0.0,21,0.00,CLR,OVC,0.00,WeatherDisplay:10.37,2013-12-13 01:05:00,
2013-12-12 19:10:00,17.4,-15.9,30.18,North,0,0.0,0.0,21,0.00,CLR,OVC,0.00,WeatherDisplay:10.37,2013-12-13 01:10:00,
2013-12-12 19:15:00,17.1,-16.2,30.18,North,0,0.0,0.0,21,0.00,CLR,OVC,0.00,WeatherDisplay:10.37,2013-12-13 01:15:00,
2013-12-12 19:20:00,17.1,-16.2,30.18,North,0,0.0,0.0,21,0.00,CLR,OVC,0.00,WeatherDisplay:10.37,2013-12-13 01:20:00,
2013-12-12 19:25:00,16.9,-16.4,30.18,North,0,0.0,0.0,21,0.00,CLR,OVC,0.00,WeatherDisplay:10.37,2013-12-13 01:25:00,
2013-12-12 19:30:00,16.7,-16.6,30.18,North,0,0.0,0.0,21,0.00,CLR,OVC,0.00,WeatherDisplay:10.37,2013-12-13 01:30:00,
2013-12-12 19:35:00,16.5,-16.7,30.18,North,0,0.0,0.0,21,0.00,CLR,OVC,0.00,WeatherDisplay:10.37,2013-12-13 01:35:00,
2013-12-12 19:40:00,16.5,-16.7,30.18,North,0,0.0,0.0,21,0.00,CLR,OVC,0.00,WeatherDisplay:10.37,2013-12-13 01:40:00,
2013-12-12 19:45:00,16.5,-16.7,30.18,North,0,0.0,0.0,21,0.00,CLR,OVC,0.00,WeatherDisplay:10.37,2013-12-13 01:45:00,
2013-12-12 19:50:00,16.5,-16.7,30.18,North,0,0.0,0.0,21,0.00,CLR,OVC,0.00,WeatherDisplay:10.37,2013-12-13 01:50:00,
2013-12-12 19:55:00,16.3,-16.9,30.18,North,0,0.0,0.0,21,0.00,CLR,OVC,0.00,WeatherDisplay:10.37,2013-12-13 01:55:00,
2013-12-12 20:00:00,16.3,-16.9,30.18,North,0,0.0,0.0,21,0.00,CLR,OVC,0.00,WeatherDisplay:10.37,2013-12-13 02:00:00,
2013-12-12 20:05:00,16.3,-16.9,30.18,North,0,0.0,0.0,21,0.00,BKN,OVC,0.00,WeatherDisplay:10.37,2013-12-13 02:05:00,
2013-12-12 20:10:00,16.3,-16.9,30.18,North,0,0.0,0.0,21,0.00,BKN,OVC,0.00,WeatherDisplay:10.37,2013-12-13 02:10:00,
2013-12-12 20:15:00,16.3,-16.9,30.18,North,0,0.0,0.0,21,0.00,BKN,OVC,0.00,WeatherDisplay:10.37,2013-12-13 02:15:00,
2013-12-12 20:20:00,16.5,-16.7,30.15,North,0,0.0,0.0,21,0.00,BKN,OVC,0.00,WeatherDisplay:10.37,2013-12-13 02:20:00,
2013-12-12 20:25:00,16.5,-14.9,30.15,North,0,0.0,0.0,23,0.00,BKN,OVC,0.00,WeatherDisplay:10.37,2013-12-13 02:25:00,
2013-12-12 20:30:00,16.7,-14.8,30.15,North,0,0.0,0.0,23,0.00,BKN,OVC,0.00,WeatherDisplay:10.37,2013-12-13 02:30:00,
2013-12-12 20:35:00,16.9,-14.6,30.15,North,0,0.0,0.0,23,0.00,BKN,OVC,0.00,WeatherDisplay:10.37,2013-12-13 02:35:00,
2013-12-12 20:40:00,17.1,-14.5,30.15,North,0,0.0,0.0,23,0.00,BKN,OVC,0.00,WeatherDisplay:10.37,2013-12-13 02:40:00,
2013-12-12 20:45:00,17.4,-14.1,30.15,North,0,0.0,0.0,23,0.00,BKN,OVC,0.00,WeatherDisplay:10.37,2013-12-13 02:45:00,
2013-12-12 20:50:00,17.4,-14.1,30.15,North,0,0.0,0.0,23,0.00,BKN,OVC,0.00,WeatherDisplay:10.37,2013-12-13 02:50:00,
2013-12-12 20:55:00,17.4,-14.1,30.15,North,0,0.0,0.0,23,0.00,BKN,OVC,0.00,WeatherDisplay:10.37,2013-12-13 02:55:00,
2013-12-12 21:00:00,17.4,-11.7,30.15,North,0,0.0,0.0,26,0.00,BKN,OVC,0.00,WeatherDisplay:10.37,2013-12-13 03:00:00,
2013-12-12 21:05:00,17.4,-11.7,30.15,North,0,0.0,0.0,26,0.00,OVC,,0.00,WeatherDisplay:10.37,2013-12-13 03:05:00,
2013-12-12 21:10:00,17.4,-11.7,30.15,North,0,0.0,0.0,26,0.00,OVC,,0.00,WeatherDisplay:10.37,2013-12-13 03:10:00,
2013-12-12 21:15:00,17.1,-12.0,30.12,North,0,0.0,0.0,26,0.00,OVC,,0.00,WeatherDisplay:10.37,2013-12-13 03:15:00,
2013-12-12 21:21:00,17.1,-12.0,30.12,North,0,0.0,0.0,26,0.00,OVC,,0.00,WeatherDisplay:10.37,2013-12-13 03:21:00,
2013-12-12 21:26:00,17.1,-12.0,30.12,North,0,0.0,0.0,26,0.00,OVC,,0.00,WeatherDisplay:10.37,2013-12-13 03:26:00,
2013-12-12 21:31:00,16.9,-12.2,30.12,North,0,0.0,0.0,26,0.00,OVC,,0.00,WeatherDisplay:10.37,2013-12-13 03:31:00,
2013-12-12 21:36:00,16.9,-12.2,30.12,North,0,0.0,0.0,26,0.00,OVC,,0.00,WeatherDisplay:10.37,2013-12-13 03:36:00,
2013-12-12 21:41:00,16.7,-12.3,30.12,North,0,0.0,0.0,26,0.00,OVC,,0.00,WeatherDisplay:10.37,2013-12-13 03:41:00,
2013-12-12 21:46:00,16.5,-12.5,30.15,North,0,0.0,0.0,26,0.00,OVC,,0.00,WeatherDisplay:10.37,2013-12-13 03:46:00,
2013-12-12 21:51:00,16.3,-12.6,30.15,North,0,0.0,0.0,26,0.00,OVC,,0.00,WeatherDisplay:10.37,2013-12-13 03:51:00,
2013-12-12 21:56:00,16.2,-12.8,30.15,North,0,0.0,0.0,26,0.00,OVC,,0.00,WeatherDisplay:10.37,2013-12-13 03:56:00,
2013-12-12 22:01:00,16.2,-12.8,30.12,North,0,0.0,0.0,26,0.00,CLR,OVC,0.00,WeatherDisplay:10.37,2013-12-13 04:01:00,
2013-12-12 22:06:00,16.0,-12.9,30.12,North,0,0.0,0.0,26,0.00,CLR,OVC,0.00,WeatherDisplay:10.37,2013-12-13 04:06:00,
2013-12-12 22:11:00,16.0,-12.9,30.12,North,0,0.0,0.0,26,0.00,CLR,OVC,0.00,WeatherDisplay:10.37,2013-12-13 04:11:00,
2013-12-12 22:16:00,15.8,-13.1,30.12,North,0,0.0,0.0,26,0.00,CLR,OVC,0.00,WeatherDisplay:10.37,2013-12-13 04:16:00,
2013-12-12 22:21:00,15.8,-13.1,30.12,North,0,0.0,0.0,26,0.00,CLR,OVC,0.00,WeatherDisplay:10.37,2013-12-13 04:21:00,
2013-12-12 22:26:00,15.4,-13.4,30.12,North,0,0.0,0.0,26,0.00,CLR,OVC,0.00,WeatherDisplay:10.37,2013-12-13 04:26:00,
2013-12-12 22:31:00,15.4,-13.4,30.12,North,0,0.0,0.0,26,0.00,CLR,OVC,0.00,WeatherDisplay:10.37,2013-12-13 04:31:00,
2013-12-12 22:36:00,15.3,-13.6,30.12,North,0,0.0,0.0,26,0.00,CLR,OVC,0.00,WeatherDisplay:10.37,2013-12-13 04:36:00,
2013-12-12 22:41:00,15.1,-13.7,30.12,North,0,0.0,0.0,26,0.00,CLR,OVC,0.00,WeatherDisplay:10.37,2013-12-13 04:41:00,
2013-12-12 22:46:00,15.1,-13.7,30.12,North,0,0.0,0.0,26,0.00,CLR,OVC,0.00,WeatherDisplay:10.37,2013-12-13 04:46:00,
2013-12-12 22:51:00,14.9,-13.9,30.12,North,0,0.0,0.0,26,0.00,CLR,OVC,0.00,WeatherDisplay:10.37,2013-12-13 04:51:00,
2013-12-12 22:56:00,14.9,-13.9,30.12,North,0,0.0,0.0,26,0.00,CLR,OVC,0.00,WeatherDisplay:10.37,2013-12-13 04:56:00,
2013-12-12 23:01:00,14.7,-11.9,30.12,North,0,0.0,0.0,29,0.00,CLR,OVC,0.00,WeatherDisplay:10.37,2013-12-13 05:01:00,
2013-12-12 23:02:00,14.7,-11.9,30.12,North,0,0.0,0.0,29,0.00,CLR,OVC,0.00,WeatherDisplay:10.37,2013-12-13 05:02:00,
2013-12-12 23:03:00,14.7,-11.9,30.12,North,0,0.0,0.0,29,0.00,CLR,OVC,0.00,WeatherDisplay:10.37,2013-12-13 05:03:00,
2013-12-12 23:04:00,14.7,-11.9,30.12,North,0,0.0,0.0,29,0.00,CLR,OVC,0.00,WeatherDisplay:10.37,2013-12-13 05:04:00,
2013-12-12 23:09:00,14.5,-12.0,30.12,North,0,0.0,0.0,29,0.00,CLR,OVC,0.00,WeatherDisplay:10.37,2013-12-13 05:09:00,
2013-12-12 23:14:00,14.5,-12.0,30.12,North,0,0.0,0.0,29,0.00,CLR,OVC,0.00,WeatherDisplay:10.37,2013-12-13 05:14:00,
2013-12-12 23:19:00,14.4,-12.2,30.12,North,0,0.0,0.0,29,0.00,CLR,OVC,0.00,WeatherDisplay:10.37,2013-12-13 05:19:00,
2013-12-12 23:24:00,14.4,-12.2,30.12,North,0,0.0,0.0,29,0.00,CLR,OVC,0.00,WeatherDisplay:10.37,2013-12-13 05:24:00,
2013-12-12 23:29:00,14.2,-12.3,30.12,North,0,0.0,0.0,29,0.00,CLR,OVC,0.00,WeatherDisplay:10.37,2013-12-13 05:29:00,
2013-12-12 23:34:00,14.2,-12.3,30.12,North,0,0.0,0.0,29,0.00,CLR,OVC,0.00,WeatherDisplay:10.37,2013-12-13 05:34:00,
2013-12-12 23:39:00,14.0,-12.5,30.12,North,0,0.0,0.0,29,0.00,CLR,OVC,0.00,WeatherDisplay:10.37,2013-12-13 05:39:00,
2013-12-12 23:44:00,13.8,-12.6,30.12,North,0,0.0,0.0,29,0.00,CLR,OVC,0.00,WeatherDisplay:10.37,2013-12-13 05:44:00,
2013-12-12 23:49:00,13.6,-12.8,30.12,North,0,0.0,0.0,29,0.00,CLR,OVC,0.00,WeatherDisplay:10.37,2013-12-13 05:49:00,
2013-12-12 23:54:00,13.6,-12.8,30.12,North,0,0.0,0.0,29,0.00,CLR,OVC,0.00,WeatherDisplay:10.37,2013-12-13 05:54:00,
2013-12-12 23:59:00,13.5,-13.0,30.12,North,0,0.0,0.0,29,0.00,CLR,OVC,0.00,WeatherDisplay:10.37,2013-12-13 05:59:00,